User: anonymous   Login
Location: Vancouver
(49.2500°N, 123.1330°W)
Time: 19:57:34
(UTC-08:00)
Language:

BREEZE-M DEB (TANK) - Orbit

View from above orbital plane
View from above orbital plane
View from above satellite
View from above satellite

Ground track
Ground track

The orbit data is extracted from the following two-line orbital elements,

1 27821U 03024B   15063.08943463  .00006969  00000-0  86553-3 0  9991
2 27821 049.5864 298.6214 4991784 117.9672 011.7668 05.65544512232648
Epoch (UTC): 04 March 2015 02:08:47
Eccentricity: 0.4991784
inclination: 49.5864°
perigee height: 286 km
apogee height: 13572 km
right ascension of ascending node: 298.6214°
argument of perigee: 117.9672°
revolutions per day: 5.65544512
mean anomaly at epoch: 11.7668°
orbit number at epoch: 23264

The dashed part of the orbit path shows where the satellite is in the earth's shadow,  

DLR